Temp
39 39 37 36 37 37 35 34 33 33 33 32 32 31 31 30 29 28 28 28 27 27 27 27 27 27 26 25 25 26 25 24 21 25 28 29 28 28 30 31 32 32 34
38 37 36 37 36 34 34 34 32 31 32 31 31 30 30 30 29 28 28 28 27 27 27 27 26 30 25 24 23 23 23 23 21 20 24 25 25 26 27 27 30 34 32
38 36 35 34 33 33 32 32 32 31 30 30 30 29 29 29 29 28 28 28 27 27 27 26 25 25 24 23 22 21 21 25 22 21 20 23 24 25 25 27 27 27 32
38 35 34 33 33 33 32 31 31 30 29 28 29 29 28 28 29 28 29 27 27 27 27 27 26 25 24 22 23 22 24 21 21 20 20 21 22 25 24 23 23 26 26
37 34 34 33 33 32 30 30 29 29 29 29 28 27 27 27 29 27 27 26 25 25 26 27 27 26 30 28 26 22 22 19 19 19 19 20 20 22 22 24 23 24 25
36 35 34 33 33 31 29 28 28 28 27 26 26 25 24 29 32 30 28 25 26 26 25 25 26 25 27 29 29 30 28 22 19 18 20 19 21 23 24 23 23 21 18
33 31 31 32 32 28 28 27 26 24 25 23 23 23 23 23 31 30 29 26 25 24 25 25 26 27 24 25 27 28 28 28 30 26 22 22 21 23 24 22 23 22 21
33 31 31 31 28 26 26 25 23 23 23 21 21 22 22 23 30 30 29 25 23 24 24 24 24 24 24 25 24 23 24 25 26 27 26 26 26 28 26 25 24 24 25
32 31 32 30 27 26 25 23 23 22 20 19 19 17 17 17 28 29 27 21 22 22 25 24 24 23 26 29 26 20 21 22 27 28 28 29 29 29 28 24 19 18 17
32 32 30 29 28 26 25 21 20 18 21 21 20 17 16 14 25 27 27 21 13 19 21 25 27 27 29 30 25 19 16 18 20 19 18 20 22 23 25 24 21 17 17
28 28 27 27 28 26 21 18 19 16 19 15 16 14 14 15 14 25 27 22 19 17 18 20 23 27 29 30 29 20 17 23 14 11 13 14 16 17 19 21 23 20 15
27 26 24 22 23 21 19 14 16 15 12 10 9 11 15 16 19 22 26 27 25 19 17 21 22 27 28 27 26 25 25 21 7 8 9 10 12 14 17 18 20 20 21
23 20 16 17 18 17 17 14 11 11 12 11 13 12 13 17 17 25 26 26 27 24 22 23 27 26 25 21 22 23 18 9 6 2 7 10 14 15 17 16 17 18 19
17 16 15 16 14 13 15 15 14 12 11 12 13 14 10 12 14 16 17 17 22 22 23 18 19 23 23 20 14 16 14 12 10 9 10 13 13 12 12 14 12 13 12
17 16 15 14 13 11 13 14 15 12 15 8 9 9 8 9 13 20 17 12 13 17 18 10 5 5 5 7 6 7 9 9 8 9 9 8 9 10 10 12 11 11 9
16 15 14 13 11 11 10 8 23 23 25 27 27 17 7 20 24 25 27 27 27 27 13 -1 -1 2 4 4 3 5 7 8 8 7 7 7 7 8 8 9 11 9 8
12 13 12 12 11 9 8 7 6 14 26 26 27 27 27 27 26 26 27 27 27 26 2 -2 3 3 1 4 2 4 6 7 5 6 6 6 6 6 6 7 8 9 8
8 10 10 7 7 6 5 6 5 3 1 3 15 20 22 22 23 24 24 24 18 18 -4 0 2 3 -1 -1 0 3 4 2 1 2 3 2 3 4 4 5 7 6 7
8 6 6 6 4 4 4 2 1 1 -1 -3 -2 8 11 18 19 21 22 16 13 6 1 -2 0 -1 1 -1 -5 -1 -4 -3 -5 -4 -2 -0 2 3 3 5 5 6 8
1 4 4 3 1 0 1 -1 -1 -2 -3 -3 -5 -2 -3 -7 -10 -9 -3 3 -3 1 -3 -3 -2 -3 -3 -3 -10 -4 -7 -8 -9 -11 -8 -5 1 2 3 3 3 5 7
-0 -3 -0 -3 -5 -6 -6 -5 -3 -4 -3 -7 -6 -0 13 7 4 -4 -3 0 0 -5 0 1 -0 -1 -3 -8 -11 -7 -10 -6 -11 -13 -12 -5 -1 -0 0 2 3 6 7
-3 -5 -9 -10 -7 -6 -7 -4 -5 -7 -8 -9 -6 -4 10 2 -0 2 4 5 1 2 3 0 -3 -3 -2 -8 -7 -10 -11 -10 -12 -14 -10 -6 -2 -3 -2 0 3 7 6
-6 -7 -9 -9 -7 -3 -6 -10 -11 -11 -11 -12 -10 -7 -10 -10 -7 -3 1 -1 1 2 1 -1 -1 -2 -2 -6 -8 -8 -8 -7 -9 -16 -9 -5 -4 -4 -3 -1 4 4 4
-8 -7 -4 -5 -7 -8 -9 -10 -10 -10 -12 -13 -15 -13 -7 -7 -10 -6 -2 2 1 1 0 -0 -1 -2 -2 -9 -11 -12 -11 -8 -13 -7 -12 -5 -4 -3 -3 0 5 3 3
-5 -4 -4 -7 -11 -10 -11 -13 -12 -15 -15 -11 -10 -9 -9 -8 -6 -4 0 1 0 -0 -1 -1 -2 -3 -5 -9 -9 -13 -12 -3 -6 -7 -12 -9 -6 -6 -3 4 2 -1 -2
-3 -6 -8 -9 -11 -13 -15 -14 -14 -13 -12 -10 -9 -8 -9 -6 -3 0 -1 -0 -1 -1 -2 -3 -4 -5 -8 -8 -10 -8 -8 -2 -4 -5 -5 -5 -2 2 7 3 -5 -7 -6
MSLP
1025.71 1026.21 1026.83 1027.51 1028.18 1028.75 1029.45 1030.06 1030.67 1031.03 1031.49 1031.96 1032.32 1032.60 1033.13 1033.25 1033.29 1033.55 1033.67 1033.92 1034.15 1034.23 1033.95 1034.00 1034.19 1034.24 1034.21 1034.33 1034.15 1034.25 1034.17 1034.01 1033.65 1030.80 1031.21 1030.83 1030.53 1029.92 1028.97 1028.25 1027.63 1026.90 1026.03
1025.64 1026.14 1026.64 1027.29 1028.01 1028.75 1029.30 1029.90 1030.39 1030.99 1031.17 1031.76 1032.30 1032.73 1033.11 1033.25 1033.45 1033.63 1033.66 1033.75 1034.15 1034.13 1033.89 1034.19 1034.22 1033.89 1034.23 1034.14 1033.87 1034.00 1034.01 1033.86 1033.63 1032.27 1031.30 1030.72 1030.56 1029.94 1029.19 1028.22 1027.29 1026.57 1025.87
1025.57 1026.27 1026.93 1027.36 1027.92 1028.59 1029.10 1029.69 1030.13 1030.82 1031.19 1031.72 1032.34 1032.63 1032.92 1033.02 1033.42 1033.56 1033.49 1033.77 1033.83 1033.74 1033.82 1033.89 1033.89 1034.08 1033.90 1033.70 1033.72 1033.87 1033.77 1033.50 1033.29 1032.70 1030.94 1030.87 1030.20 1029.65 1028.62 1027.85 1027.04 1026.21 1025.56
1024.86 1025.67 1026.43 1026.92 1027.54 1028.24 1028.95 1029.55 1030.05 1030.44 1030.97 1031.75 1032.27 1032.49 1032.88 1033.36 1033.29 1033.51 1033.48 1033.68 1033.58 1033.50 1033.50 1033.56 1033.70 1033.71 1033.53 1033.51 1033.57 1033.48 1033.25 1033.04 1032.83 1032.37 1031.32 1030.47 1029.77 1028.88 1028.30 1027.43 1026.21 1025.94 1025.08
1024.68 1025.47 1026.01 1026.64 1027.44 1028.00 1028.84 1029.36 1029.86 1030.28 1030.96 1031.49 1031.97 1032.32 1032.85 1033.18 1033.14 1033.10 1033.21 1033.46 1033.49 1033.38 1033.38 1033.24 1033.15 1033.13 1032.95 1032.93 1032.82 1032.79 1032.68 1032.40 1032.18 1031.65 1030.83 1029.86 1029.17 1028.32 1027.70 1027.02 1026.22 1025.24 1024.34
1024.14 1024.98 1025.51 1026.15 1026.76 1027.58 1028.45 1029.18 1029.87 1030.27 1030.86 1031.38 1031.77 1032.36 1032.76 1032.62 1032.68 1032.86 1032.89 1033.21 1033.29 1033.24 1033.09 1032.84 1032.74 1032.79 1032.73 1032.55 1032.39 1032.16 1031.91 1031.60 1031.23 1030.93 1030.13 1029.31 1028.32 1027.81 1027.06 1026.43 1025.53 1024.64 1023.04
1023.59 1024.32 1024.91 1025.73 1026.44 1027.22 1028.13 1028.91 1029.70 1030.16 1030.73 1031.15 1031.72 1032.15 1032.46 1032.62 1032.31 1032.26 1032.41 1032.78 1032.82 1032.87 1032.72 1032.54 1032.40 1032.33 1032.45 1032.33 1032.09 1031.65 1031.32 1031.20 1030.52 1029.94 1029.23 1028.66 1027.64 1027.19 1026.45 1025.55 1024.86 1023.95 1022.83
1023.15 1023.96 1024.60 1025.28 1026.10 1027.01 1027.80 1028.41 1029.16 1029.87 1030.37 1030.90 1031.34 1031.77 1032.06 1031.94 1031.59 1031.74 1032.18 1032.31 1032.34 1032.36 1032.29 1032.25 1032.19 1032.07 1031.94 1031.68 1031.36 1030.86 1030.60 1030.31 1029.93 1029.39 1028.86 1028.02 1027.31 1026.42 1025.75 1024.91 1024.02 1023.04 1022.16
1022.77 1023.43 1023.99 1024.69 1025.66 1026.62 1027.37 1028.05 1028.68 1029.42 1030.11 1030.49 1030.94 1031.27 1031.52 1031.81 1031.29 1031.36 1031.58 1031.89 1031.87 1031.77 1031.64 1031.64 1031.61 1031.42 1031.18 1030.74 1030.24 1030.17 1029.99 1029.62 1029.30 1028.80 1028.18 1027.46 1026.79 1026.02 1025.43 1024.58 1023.85 1023.01 1021.59
1022.08 1022.70 1023.63 1024.45 1025.29 1026.10 1026.77 1027.63 1028.19 1028.73 1029.23 1029.98 1030.48 1030.93 1031.15 1031.37 1031.14 1030.95 1030.89 1031.35 1031.34 1031.25 1031.14 1030.88 1030.64 1030.31 1029.99 1029.68 1029.63 1029.77 1029.57 1029.26 1028.87 1028.33 1028.22 1027.61 1026.91 1026.14 1025.28 1024.63 1023.63 1022.66 1021.93
1021.62 1022.59 1023.44 1024.15 1024.77 1025.39 1026.32 1027.14 1027.79 1028.39 1029.04 1029.69 1030.15 1030.40 1030.66 1030.81 1031.08 1030.39 1030.25 1030.40 1030.52 1030.60 1030.65 1030.48 1030.22 1029.88 1029.49 1029.08 1029.11 1029.41 1029.22 1028.56 1028.86 1028.77 1028.29 1027.61 1026.89 1026.06 1025.24 1024.49 1023.74 1023.29 1022.54
1021.48 1022.34 1023.12 1023.80 1024.48 1025.29 1026.13 1026.88 1027.52 1028.15 1028.90 1029.48 1030.04 1029.89 1029.89 1029.94 1029.88 1029.89 1029.65 1029.49 1029.82 1029.94 1029.98 1029.86 1029.78 1029.31 1028.78 1028.74 1028.72 1028.90 1028.48 1028.49 1029.20 1028.82 1028.31 1027.53 1026.69 1025.75 1024.94 1024.44 1023.76 1023.21 1022.57
1021.64 1022.46 1023.21 1024.04 1024.69 1025.27 1026.07 1026.95 1027.59 1027.95 1028.44 1028.72 1029.09 1029.30 1028.98 1029.02 1029.22 1028.92 1028.97 1029.00 1028.92 1028.96 1029.12 1029.04 1028.60 1028.59 1028.62 1028.98 1029.10 1028.61 1028.61 1029.20 1028.96 1028.80 1028.13 1027.25 1026.41 1025.59 1024.83 1024.20 1023.45 1022.86 1022.03
1021.90 1022.85 1023.58 1024.24 1025.05 1025.55 1026.04 1026.52 1026.94 1027.27 1027.73 1028.04 1028.18 1028.29 1028.42 1028.55 1028.63 1028.82 1028.82 1028.85 1028.69 1028.40 1028.25 1028.32 1028.29 1028.03 1028.31 1028.55 1028.96 1028.84 1028.78 1028.72 1028.55 1028.24 1027.73 1026.97 1026.24 1025.42 1024.59 1024.03 1023.22 1022.40 1021.60
1022.32 1023.04 1023.66 1024.16 1024.97 1025.57 1025.69 1025.80 1025.97 1026.23 1026.65 1027.15 1027.15 1027.45 1027.85 1027.87 1027.73 1027.64 1027.90 1028.11 1028.11 1027.99 1027.79 1028.05 1028.15 1028.57 1028.71 1028.76 1028.77 1028.73 1028.67 1028.45 1028.27 1027.87 1027.50 1026.99 1026.17 1025.29 1024.39 1023.78 1023.17 1022.36 1021.52
1022.58 1023.26 1023.54 1024.09 1024.84 1025.24 1025.68 1025.84 1025.46 1025.70 1026.01 1025.83 1025.90 1026.48 1027.37 1027.04 1027.02 1026.82 1026.49 1026.33 1026.14 1026.10 1026.77 1027.65 1028.12 1028.44 1028.64 1028.72 1028.77 1028.58 1028.40 1028.26 1027.93 1027.60 1027.31 1026.88 1026.13 1025.37 1024.48 1023.63 1022.96 1022.17 1021.18
1022.61 1023.12 1023.58 1024.17 1024.77 1025.45 1025.92 1026.10 1026.28 1025.70 1025.25 1025.47 1025.67 1025.77 1025.74 1025.73 1025.92 1025.82 1025.67 1025.46 1025.07 1025.13 1026.20 1027.22 1027.74 1028.12 1028.36 1028.41 1028.46 1028.35 1028.18 1028.04 1027.70 1027.51 1027.24 1026.74 1026.11 1025.39 1024.65 1023.61 1022.70 1021.84 1020.80
1022.81 1023.12 1023.78 1024.55 1025.20 1025.81 1026.06 1026.44 1026.68 1026.65 1026.75 1026.65 1026.51 1026.36 1026.28 1026.18 1025.93 1025.67 1025.43 1025.11 1024.96 1024.97 1026.41 1027.08 1027.43 1027.81 1028.05 1028.15 1028.14 1028.10 1028.00 1027.88 1027.60 1027.38 1027.08 1026.67 1026.05 1025.35 1024.42 1023.48 1022.52 1021.70 1020.72
1023.32 1023.95 1024.18 1024.86 1025.43 1025.85 1026.26 1026.86 1027.03 1027.08 1027.22 1027.41 1027.23 1027.00 1027.08 1026.45 1026.02 1025.64 1025.29 1025.18 1025.28 1025.62 1026.25 1026.75 1026.94 1027.34 1027.57 1027.67 1027.68 1027.75 1027.76 1027.69 1027.44 1027.14 1026.78 1026.30 1025.74 1025.15 1024.22 1023.26 1022.33 1021.36 1020.38
1024.20 1024.50 1024.75 1025.18 1025.81 1026.44 1026.83 1027.18 1027.44 1027.65 1027.74 1027.69 1027.63 1027.58 1027.37 1027.24 1026.78 1026.74 1026.38 1026.19 1026.03 1026.00 1026.09 1026.36 1026.56 1026.81 1027.06 1027.22 1027.28 1027.39 1027.42 1027.35 1027.13 1026.79 1026.39 1025.96 1025.42 1024.86 1024.01 1023.10 1022.15 1021.06 1019.87
1024.85 1025.11 1025.26 1025.82 1026.71 1027.05 1027.34 1027.60 1027.86 1028.04 1027.97 1027.92 1027.88 1027.43 1027.09 1026.59 1026.23 1026.42 1026.18 1026.01 1025.87 1025.74 1025.84 1026.11 1026.34 1026.50 1026.59 1026.67 1026.83 1026.97 1026.99 1026.90 1026.64 1026.36 1026.06 1025.62 1025.08 1024.44 1023.77 1022.88 1021.87 1020.70 1019.75
1025.22 1025.74 1026.08 1026.80 1026.82 1027.22 1027.46 1027.44 1027.87 1028.00 1028.18 1028.01 1027.74 1027.34 1026.94 1026.84 1026.66 1026.43 1026.11 1025.71 1025.41 1025.26 1025.39 1025.69 1026.00 1026.07 1026.02 1026.17 1026.35 1026.45 1026.42 1026.35 1026.06 1025.95 1025.70 1025.26 1024.68 1024.06 1023.43 1022.52 1021.40 1020.36 1019.63
1025.75 1026.30 1026.72 1026.95 1027.01 1027.15 1027.56 1027.68 1028.07 1028.07 1028.15 1028.06 1027.57 1027.28 1027.03 1026.85 1026.57 1026.25 1025.85 1025.57 1025.41 1025.21 1025.17 1025.33 1025.44 1025.46 1025.43 1025.51 1025.55 1025.67 1025.69 1025.47 1025.34 1025.60 1025.37 1024.87 1024.25 1023.59 1023.01 1022.15 1020.97 1020.22 1019.57
1025.93 1026.21 1026.65 1027.01 1027.16 1027.45 1027.74 1027.96 1027.96 1027.66 1027.80 1027.96 1027.48 1027.22 1026.83 1026.50 1026.18 1025.81 1025.47 1025.15 1024.96 1024.85 1024.88 1024.89 1024.94 1024.92 1024.78 1024.97 1024.95 1024.85 1024.73 1024.57 1024.50 1024.33 1024.55 1024.31 1023.78 1023.00 1022.37 1021.53 1020.48 1020.16 1019.63
1025.96 1026.27 1026.55 1026.99 1027.29 1027.60 1027.75 1027.80 1027.79 1027.81 1027.40 1026.98 1026.86 1026.61 1026.21 1025.88 1025.53 1025.19 1024.94 1024.66 1024.58 1024.55 1024.48 1024.47 1024.44 1024.29 1024.24 1024.22 1024.14 1024.04 1023.87 1023.66 1023.57 1023.47 1023.63 1023.60 1023.05 1022.27 1021.60 1020.68 1020.20 1019.99 1019.60
1025.94 1026.17 1026.40 1026.56 1027.04 1027.28 1027.50 1027.50 1027.44 1027.30 1027.18 1026.54 1026.23 1026.07 1025.76 1025.42 1025.03 1024.83 1024.59 1024.34 1024.25 1024.11 1024.03 1023.94 1023.81 1023.73 1023.63 1023.43 1023.25 1023.09 1022.86 1022.54 1022.37 1022.25 1022.33 1022.28 1021.73 1020.97 1020.26 1019.88 1019.79 1019.84 1019.57
Wind_Speed
8 7 8 7 7 7 7 7 7 7 7 7 6 6 4 4 4 4 3 3 2 2 3 3 4 4 3 3 3 3 3 2 8 14 8 9 13 11 14 14 13 14 12
7 7 8 8 8 8 7 7 7 7 7 7 6 5 4 3 3 2 1 1 1 2 3 4 4 3 5 4 3 4 4 3 5 17 12 11 11 11 12 15 12 11 11
8 9 7 8 8 8 8 8 7 7 7 6 5 5 4 3 2 2 3 2 3 3 3 4 4 5 4 3 3 4 4 7 5 9 14 10 10 10 12 11 13 13 9
10 10 10 10 9 8 8 8 7 7 7 6 5 5 3 3 4 4 2 3 3 3 4 4 5 5 5 3 5 5 7 6 7 9 11 11 11 11 10 11 11 10 11
11 10 11 8 8 8 8 8 7 7 6 6 6 4 4 4 3 4 1 3 4 5 5 5 5 5 11 10 6 4 6 6 7 9 11 12 11 11 12 11 12 12 12
12 12 8 9 9 8 8 8 7 7 6 6 5 5 5 3 8 7 4 3 5 6 6 5 4 5 8 12 14 16 13 10 10 8 11 12 16 13 12 12 13 13 16
11 8 9 10 10 9 9 9 8 7 6 6 6 6 6 6 10 9 8 5 5 5 7 6 6 5 5 6 12 17 17 19 21 16 16 15 18 16 16 17 16 15 15
11 9 9 10 10 9 10 10 7 6 8 6 6 6 6 6 11 10 10 4 5 7 7 7 7 8 7 8 10 11 9 10 12 11 14 15 16 16 15 15 16 17 12
10 11 12 11 11 11 11 10 7 7 5 5 4 7 7 5 11 11 9 3 7 8 7 7 8 9 12 17 11 6 9 10 13 23 25 27 29 32 27 15 12 13 12
11 12 10 10 11 12 11 10 6 5 7 6 6 6 7 6 13 13 10 3 5 6 7 9 13 12 16 16 8 5 9 11 13 11 12 15 17 16 23 13 10 10 10
7 7 9 10 11 9 8 5 7 6 6 6 6 5 6 6 8 14 14 7 6 6 6 5 5 14 17 17 14 5 8 14 8 7 9 9 10 10 9 10 11 11 11
8 8 8 7 6 7 9 5 7 7 6 6 5 4 5 7 12 14 17 17 13 8 6 6 6 17 17 13 14 17 18 11 3 5 7 9 9 9 10 11 13 12 11
8 7 6 6 6 6 8 8 5 6 6 6 7 6 6 6 6 15 15 16 17 11 5 10 19 11 11 9 13 15 8 2 3 3 7 9 9 10 13 11 12 12 13
7 6 6 7 6 5 5 6 6 7 6 5 6 6 2 3 4 5 5 6 12 11 12 6 6 10 10 9 3 7 4 4 5 6 7 9 9 9 10 9 10 10 10
6 6 6 5 6 5 5 6 6 3 6 4 4 4 4 4 5 10 9 6 7 10 10 2 1 1 2 2 3 3 3 3 4 5 5 8 9 9 10 9 9 10 9
6 5 5 5 4 4 4 1 10 11 13 14 13 7 3 10 14 16 18 19 20 20 2 3 3 3 3 3 3 4 3 5 4 4 6 7 8 9 10 10 9 9 10
5 5 4 4 4 4 2 3 2 4 10 12 13 15 17 16 17 19 20 22 22 18 3 3 3 3 3 3 3 3 6 4 2 4 6 7 8 8 11 10 10 10 9
5 7 5 3 4 3 3 3 3 2 1 2 5 9 11 15 18 19 20 19 9 7 3 3 4 4 3 3 3 4 5 4 3 4 6 6 7 8 9 10 9 11 10
6 4 5 5 4 4 4 3 2 1 1 2 2 6 7 16 19 20 21 9 7 3 3 3 3 3 4 4 3 3 4 4 4 4 4 5 7 7 9 9 10 14 14
6 7 5 4 4 3 2 2 1 1 2 2 2 3 3 2 1 3 4 7 3 3 3 3 3 3 4 4 3 4 4 4 4 3 4 4 6 7 9 10 9 11 11
4 3 5 4 3 3 3 2 1 1 1 2 3 3 15 8 6 5 5 6 5 4 3 3 3 4 4 3 3 4 4 6 4 4 3 5 6 8 8 9 10 10 10
4 4 3 3 2 2 2 2 1 0 2 3 3 4 15 5 5 6 6 5 2 2 3 3 3 4 5 4 4 4 5 5 5 3 4 5 7 7 8 9 9 9 9
4 4 3 2 2 3 1 1 2 3 4 4 3 3 2 3 4 5 7 4 3 3 3 3 4 6 5 4 4 5 6 7 5 4 4 6 7 7 7 8 9 8 8
3 3 3 2 2 2 1 3 3 4 4 3 3 4 4 4 5 5 5 6 5 4 3 5 5 7 7 5 4 5 5 6 4 6 6 6 9 10 7 9 7 8 8
3 2 2 2 2 2 2 3 3 4 4 3 4 4 4 5 4 5 6 6 5 5 6 6 6 8 9 10 9 8 8 13 9 7 4 7 11 12 10 9 5 6 6
3 3 2 2 3 3 3 3 4 3 4 4 4 4 4 4 4 6 5 5 5 6 7 6 7 10 10 9 9 11 12 14 11 12 9 9 9 9 8 5 5 3 5
Wind_Direction
148 144 137 137 133 131 134 136 143 135 134 126 123 112 112 104 88 79 91 85 44 355 350 1 323 321 326 322 320 300 302 303 288 298 305 313 308 308 316 316 314 311 311
148 142 144 143 145 144 146 148 144 147 136 132 122 128 135 129 119 121 123 93 303 321 325 307 305 319 305 299 309 312 300 290 288 294 307 309 310 315 309 308 309 306 314
153 151 154 157 157 160 153 150 148 146 134 129 148 158 159 169 190 216 194 240 264 263 272 282 290 294 292 304 329 308 291 298 285 289 300 306 306 309 306 303 306 305 307
163 166 169 169 166 161 151 150 152 152 147 155 167 162 172 205 217 226 216 255 270 276 282 278 274 274 284 320 302 282 291 295 294 289 295 303 304 309 300 305 305 305 306
171 172 179 163 161 153 153 156 160 151 157 166 160 166 196 215 226 200 222 271 281 279 273 270 264 264 293 292 287 270 279 280 281 288 294 299 301 306 304 306 296 301 296
176 183 166 166 163 161 152 155 155 156 156 153 168 183 213 226 233 217 229 249 270 276 277 270 277 278 279 291 296 295 295 293 290 294 289 288 296 296 294 293 293 295 296
176 170 169 166 167 162 156 152 167 173 166 174 188 194 210 221 237 232 239 243 263 268 272 278 280 276 283 279 285 288 288 286 289 298 295 288 291 291 292 289 286 284 282
177 171 164 167 166 156 160 173 168 166 177 177 188 200 210 220 232 234 242 241 258 264 263 265 264 270 264 276 276 272 281 289 295 297 295 299 296 292 287 296 298 298 290
176 175 180 173 165 168 179 179 179 166 174 176 182 192 202 219 235 237 241 234 260 263 266 262 253 258 264 280 285 302 299 301 305 306 304 307 310 309 307 307 300 301 300
179 186 176 170 173 183 184 177 165 169 184 182 193 196 208 215 233 241 241 216 242 258 258 260 257 260 273 286 296 292 310 308 304 314 323 313 313 308 311 308 301 293 300
149 152 166 178 185 182 158 155 166 161 160 181 196 200 208 203 226 246 245 230 233 250 254 258 257 276 283 292 303 323 290 297 345 325 312 310 310 309 310 309 314 317 312
155 162 166 163 160 157 160 147 158 160 171 184 193 224 225 222 224 243 246 243 243 246 245 258 267 278 283 293 314 308 304 336 319 303 306 306 305 308 313 310 303 302 296
144 151 141 131 140 149 156 159 149 165 184 195 207 225 228 220 215 240 238 246 253 262 257 258 270 287 302 319 304 299 330 307 277 292 298 299 307 308 309 308 302 302 297
134 139 138 147 148 151 160 170 178 186 196 205 209 226 208 205 194 201 220 244 264 266 270 276 244 266 295 297 317 294 287 277 281 288 295 302 308 308 308 312 311 313 309
140 151 159 158 168 173 189 183 193 205 189 187 207 190 187 216 217 226 222 219 223 238 242 131 124 211 239 253 268 265 269 273 282 281 296 304 302 310 310 315 307 304 301
152 167 169 159 164 156 162 263 236 221 230 242 238 205 233 244 251 253 258 259 256 248 188 160 208 201 222 225 251 267 259 271 269 291 300 293 302 308 308 309 305 305 304
153 156 142 134 136 147 146 152 187 287 253 253 260 266 273 269 264 272 272 269 268 259 157 196 199 201 219 228 239 249 278 272 272 288 291 295 301 301 305 304 310 309 308
98 106 123 123 131 135 130 122 118 131 180 305 321 294 288 283 283 283 279 281 274 235 158 187 205 215 216 227 238 257 273 275 272 279 283 288 289 297 303 302 310 309 308
108 94 99 99 89 91 86 94 112 116 213 237 310 295 299 290 294 292 292 285 273 210 188 192 194 204 226 229 230 249 254 265 257 272 273 278 291 298 297 300 306 306 305
89 99 97 109 114 115 120 122 123 215 250 257 270 259 284 39 299 266 258 277 245 233 211 207 214 211 224 229 223 246 262 270 266 254 262 274 291 289 295 303 303 303 310
114 97 104 87 102 118 123 142 168 183 259 268 256 264 288 279 274 238 242 251 237 220 217 222 229 233 236 227 219 240 246 262 252 255 259 279 288 293 295 293 296 298 310
101 120 104 124 127 124 150 134 111 202 255 257 266 274 300 319 309 302 292 298 270 198 206 210 227 235 243 222 225 229 244 255 256 244 263 271 286 288 289 291 294 308 312
102 112 117 137 143 133 114 221 224 227 241 249 257 280 272 262 264 273 279 268 255 249 227 219 242 257 249 237 224 219 239 252 239 210 256 282 285 283 284 289 293 310 312
116 123 129 137 140 152 193 235 241 243 249 254 261 259 261 263 256 263 269 275 262 256 241 249 246 251 263 248 243 237 235 252 233 250 221 263 279 281 278 281 293 300 303
125 137 140 150 162 203 240 249 243 247 248 245 250 251 245 249 252 262 265 266 259 258 263 260 256 258 255 253 254 246 246 263 262 255 245 250 257 263 264 269 287 298 300
165 174 190 196 204 210 221 238 245 249 257 259 257 262 254 260 268 274 267 266 266 267 266 262 258 254 258 262 256 257 256 260 252 240 232 240 247 258 266 264 278 274 285